Location: Bruderhein
(53.8035°N, 112.9265°W)
Time: 03:14:10
(UTC+00:00)

BEESAT - Pass Details

Date: 11 April 2023
Orbit: 696 x 706 km, 98.5° (Epoch: 31 May)

Event Time Altitude Azimuth Distance (km) Brightness Sun altitude
Rises 05:45:51 0° 11° (N) 3,111 ? -24.0°
Reaches altitude 10° 05:48:13 10° 5° (N) 2,187 ? -24.1°
Maximum altitude 05:52:41 41° 296° (WNW) 1,027 ? -24.4°
Enters shadow 05:55:36 19° 236° (WSW) 1,623 ? -24.6°
